TimeCST,TemperatureF,Dew PointF,Humidity,Sea Level PressureIn,VisibilityMPH,Wind Direction,Wind SpeedMPH,Gust SpeedMPH,PrecipitationIn,Events,Conditions,WindDirDegrees,DateUTC
12:15 AM,42.8,37.4,81,30.15,10.0,Calm,Calm,-,N/A,,Clear,0,2012-11-04 05:15:00
12:35 AM,44.6,39.2,81,30.15,10.0,Calm,Calm,-,N/A,,Clear,0,2012-11-04 05:35:00
12:55 AM,44.6,37.4,76,30.15,10.0,Calm,Calm,-,N/A,,Clear,0,2012-11-04 05:55:00
1:15 AM,41.0,37.4,87,30.15,10.0,Calm,Calm,-,N/A,,Clear,0,2012-11-04 06:15:00
1:35 AM,41.0,37.4,87,30.15,10.0,Calm,Calm,-,N/A,,Clear,0,2012-11-04 06:35:00
1:55 AM,42.8,37.4,81,30.16,10.0,Calm,Calm,-,N/A,,Clear,0,2012-11-04 06:55:00
1:15 AM,42.8,37.4,81,30.15,10.0,Calm,Calm,-,N/A,,Clear,0,2012-11-04 07:15:00
1:35 AM,41.0,37.4,87,30.16,10.0,Calm,Calm,-,N/A,,Clear,0,2012-11-04 07:35:00
1:55 AM,41.0,35.6,81,30.17,10.0,Calm,Calm,-,N/A,,Clear,0,2012-11-04 07:55:00
2:15 AM,41.0,37.4,87,30.17,10.0,Calm,Calm,-,N/A,,Clear,0,2012-11-04 08:15:00
2:35 AM,42.8,37.4,81,30.17,10.0,Calm,Calm,-,N/A,,Clear,0,2012-11-04 08:35:00
2:55 AM,42.8,37.4,81,30.18,10.0,ENE,3.5,-,N/A,,Clear,60,2012-11-04 08:55:00
3:15 AM,44.6,37.4,76,30.18,10.0,NE,3.5,-,N/A,,Clear,40,2012-11-04 09:15:00
3:35 AM,41.0,37.4,87,30.17,10.0,Calm,Calm,-,N/A,,Clear,0,2012-11-04 09:35:00
3:55 AM,41.0,37.4,87,30.17,10.0,Calm,Calm,-,N/A,,Clear,0,2012-11-04 09:55:00
4:15 AM,41.0,37.4,87,30.18,10.0,Calm,Calm,-,N/A,,Clear,0,2012-11-04 10:15:00
4:35 AM,41.0,37.4,87,30.18,10.0,Calm,Calm,-,N/A,,Clear,0,2012-11-04 10:35:00
4:55 AM,39.2,37.4,93,30.18,10.0,Calm,Calm,-,N/A,,Clear,0,2012-11-04 10:55:00
5:15 AM,37.4,37.4,100,30.19,10.0,Calm,Calm,-,N/A,,Clear,0,2012-11-04 11:15:00
5:35 AM,39.2,37.4,93,30.19,10.0,Calm,Calm,-,N/A,,Clear,0,2012-11-04 11:35:00
5:55 AM,39.2,37.4,93,30.18,10.0,NE,3.5,-,N/A,,Clear,50,2012-11-04 11:55:00
6:15 AM,39.2,37.4,93,30.18,10.0,ENE,3.5,-,N/A,,Clear,70,2012-11-04 12:15:00
7:15 AM,39.2,37.4,93,30.19,10.0,NE,3.5,-,N/A,,Clear,50,2012-11-04 13:15:00
7:35 AM,41.0,37.4,87,30.19,7.0,Calm,Calm,-,N/A,,Clear,0,2012-11-04 13:35:00
7:55 AM,42.8,42.8,100,30.19,10.0,Calm,Calm,-,N/A,,Clear,0,2012-11-04 13:55:00
8:15 AM,48.2,41.0,76,30.19,10.0,Calm,Calm,-,N/A,,Clear,0,2012-11-04 14:15:00
8:35 AM,51.8,41.0,67,30.19,10.0,East,3.5,-,N/A,,Clear,90,2012-11-04 14:35:00
8:55 AM,53.6,41.0,62,30.20,10.0,East,4.6,-,N/A,,Clear,80,2012-11-04 14:55:00
9:15 AM,53.6,41.0,62,30.20,10.0,ESE,5.8,-,N/A,,Clear,110,2012-11-04 15:15:00
10:15 AM,57.2,41.0,55,30.21,10.0,East,3.5,-,N/A,,Clear,80,2012-11-04 16:15:00
10:55 AM,60.8,41.0,48,30.20,10.0,ENE,3.5,-,N/A,,Clear,70,2012-11-04 16:55:00
11:15 AM,62.6,41.0,45,30.20,10.0,Calm,Calm,-,N/A,,Clear,0,2012-11-04 17:15:00
11:55 AM,64.4,37.4,37,30.17,10.0,East,4.6,-,N/A,,Clear,100,2012-11-04 17:55:00
12:15 PM,64.4,37.4,37,30.16,10.0,East,5.8,-,N/A,,Clear,80,2012-11-04 18:15:00
12:55 PM,68.0,35.6,30,30.14,10.0,ESE,3.5,-,N/A,,Clear,110,2012-11-04 18:55:00
1:15 PM,68.0,35.6,30,30.13,10.0,East,4.6,-,N/A,,Clear,100,2012-11-04 19:15:00
1:35 PM,69.8,35.6,28,30.12,10.0,SE,4.6,-,N/A,,Clear,130,2012-11-04 19:35:00
1:55 PM,69.8,33.8,27,30.11,10.0,East,4.6,-,N/A,,Clear,90,2012-11-04 19:55:00
2:15 PM,69.8,33.8,27,30.10,10.0,SE,4.6,-,N/A,,Clear,140,2012-11-04 20:15:00
2:35 PM,69.8,33.8,27,30.10,10.0,ENE,4.6,-,N/A,,Clear,70,2012-11-04 20:35:00
2:55 PM,69.8,33.8,27,30.09,10.0,East,5.8,-,N/A,,Clear,90,2012-11-04 20:55:00
3:15 PM,69.8,33.8,27,30.09,10.0,East,6.9,-,N/A,,Clear,90,2012-11-04 21:15:00
3:35 PM,69.8,32.0,25,30.09,10.0,East,6.9,-,N/A,,Clear,100,2012-11-04 21:35:00
3:55 PM,69.8,33.8,27,30.08,10.0,East,4.6,-,N/A,,Clear,80,2012-11-04 21:55:00
4:15 PM,69.8,33.8,27,30.08,10.0,East,4.6,-,N/A,,Clear,100,2012-11-04 22:15:00
4:35 PM,68.0,33.8,28,30.08,10.0,East,4.6,-,N/A,,Clear,100,2012-11-04 22:35:00
4:55 PM,66.2,35.6,32,30.08,10.0,East,3.5,-,N/A,,Clear,100,2012-11-04 22:55:00
5:15 PM,64.4,35.6,34,30.08,10.0,Calm,Calm,-,N/A,,Clear,0,2012-11-04 23:15:00
5:35 PM,60.8,35.6,39,30.08,10.0,Calm,Calm,-,N/A,,Clear,0,2012-11-04 23:35:00
5:55 PM,59.0,37.4,45,30.08,10.0,East,3.5,-,N/A,,Clear,90,2012-11-04 23:55:00
6:15 PM,53.6,37.4,54,30.09,7.0,Calm,Calm,-,N/A,,Clear,0,2012-11-05 00:15:00
6:35 PM,53.6,37.4,54,30.09,5.0,Calm,Calm,-,N/A,,Haze,0,2012-11-05 00:35:00
6:55 PM,51.8,39.2,62,30.09,10.0,Calm,Calm,-,N/A,,Clear,0,2012-11-05 00:55:00
7:15 PM,51.8,39.2,62,30.09,10.0,Calm,Calm,-,N/A,,Clear,0,2012-11-05 01:15:00
7:35 PM,50.0,39.2,66,30.09,10.0,Calm,Calm,-,N/A,,Clear,0,2012-11-05 01:35:00
7:55 PM,53.6,39.2,58,30.09,10.0,ENE,4.6,-,N/A,,Clear,60,2012-11-05 01:55:00
8:15 PM,53.6,39.2,58,30.09,10.0,ENE,3.5,-,N/A,,Clear,70,2012-11-05 02:15:00
8:35 PM,51.8,39.2,62,30.09,10.0,ENE,4.6,-,N/A,,Clear,70,2012-11-05 02:35:00
8:55 PM,51.8,41.0,67,30.10,10.0,ENE,5.8,-,N/A,,Clear,70,2012-11-05 02:55:00
9:15 PM,51.8,39.2,62,30.10,10.0,ENE,4.6,-,N/A,,Clear,60,2012-11-05 03:15:00
9:35 PM,51.8,41.0,67,30.10,10.0,NE,4.6,-,N/A,,Clear,50,2012-11-05 03:35:00
9:55 PM,51.8,41.0,67,30.10,10.0,ENE,8.1,-,N/A,,Clear,70,2012-11-05 03:55:00
10:15 PM,53.6,41.0,62,30.10,10.0,ENE,6.9,-,N/A,,Clear,60,2012-11-05 04:15:00
10:35 PM,51.8,41.0,67,30.09,10.0,East,6.9,-,N/A,,Clear,80,2012-11-05 04:35:00
10:55 PM,51.8,41.0,67,30.09,10.0,ENE,4.6,-,N/A,,Clear,60,2012-11-05 04:55:00